Погода в Чкаловском

Россия / Республика Карелия     66°17′53″N   33°23′37″E
темп.,
°C
ветер,
м/с
пор.,
м/с
влажн.,
%
обл.,
%
осадки,
мм/ч
давл.,
гПа
погр.,
м
21 января, пт
пт2100:00−12з379499 0.0 98997
03:00−11зсз389598 0.0 991119
06:00−16ссз259990 0.0 99461
09:00−15ссз259851 0.0 99770
12:00−14сз1310099 0.0 100039
15:00−8с4149260 0.3 1004360
18:00−8ссз4139419 0.0 1008286
21:00−8с412917 0.0 1011249
22 января, сб
сб2200:00−11ссз310946 0.0 1015136
03:00−15сз249716 0.0 101755
06:00−19сз2110075 0.0 101910
09:00−21зсз1110099 0.0 10209
12:00−21з11100100 0.0 10219
15:00−22зюз11100100 0.0 10219
18:00−23юз2110099 0.0 10229
21:00−21ююз22100100 0.0 102130
23 января, вс
вс2300:00−15ююз379995 0.0 102099
03:00−13ююз4119672 0.0 1018190
06:00−10ююз5159198 0.0 1016353
09:00−7ююз61686100 0.0 1014567
12:00−6ююз61394100 1.9 1013518
15:00−4юз51294100 2.1 1013441
18:00−3юз41094100 0.1 1013269
21:00−1юз61494100 0.1 1012535
24 января, пн
пн2400:00+1юз61495100 0.0 1011611
03:00+2юз71596100 0.0 1010751
06:00+2юз7179698 0.0 1008758
09:00+2юз7188724 0.0 1007670
12:00+2ююз81996100 0.0 1004801
15:00+1юз71692100 0.0 1003937
18:00+1ююз71591100 0.1 10001124
21:000ююз71597100 0.3 9971094
25 января, вт
вт2500:000ююз61497100 1.4 9941026
03:00+1юз51298100 2.8 993773
06:00−1сз51098100 1.6 995636
09:00−2з2591100 3.3 1001115
12:00−7з2690100 0.0 100585
15:00−11з2290100 0.0 100830
18:00−15з22937 0.0 101113
21:00−10сз310875 0.0 1014162